Weather History for Cleveland, OH

Change the Weather History Date:

Monday, June 9, 2014

  Actual Average Record
Temperature  
Mean Temperature 63 °F 68 °F  
Max Temperature 72 °F 77 °F 93 °F (2008)
Min Temperature 53 °F 58 °F 41 °F (1949)
Degree Days  
Heating Degree Days 2 2  
Month to date heating degree days 15 23  
Since 1 June heating degree days 15 23  
Since 1 July heating degree days 6310 5743  
Cooling Degree Days 0 4  
Month to date cooling degree days 25 34  
Year to date cooling degree days 91 93  
Since 1 June cooling degree days 25 34  
Growing Degree Days 12 (Base 50)    
Moisture  
Dew Point 56 °F    
Average Humidity 81    
Maximum Humidity 100    
Minimum Humidity 61    
Precipitation  
Precipitation 0.00 in 0.12 in 1.24 in (1981)
Month to date precipitation 0.77 1.05  
Year to date precipitation 17.04 16.19  
Snow  
Snow 0.00 in 0.00 in - ()
Month to date snowfall 0.0 0.0  
Since 1 June snowfall 0.0 0.0  
Since 1 July snowfall 86.1 68.1  
Snow Depth 0.00 in    
Sea Level Pressure  
Sea Level Pressure 29.99 in    
Wind  
Wind Speed 6 mph (NNW)    
Max Wind Speed 13 mph    
Max Gust Speed 16 mph    
Visibility 8 miles    
Events      
T = Trace of Precipitation, MM = Missing Value Source: NWS Daily Summary

Daily Weather History Graph

Daily Weather History Graph

Search for Another Location

Airport:

Trip Planner

Search our weather history database for the weather conditions in past years. The results will help you decide how hot, cold, wet, or windy it might be!

Date:

Astronomy

Jun. 09, 2014 Rise Set
Actual Time 5:53 AM EDT 8:59 PM EDT
Civil Twilight 5:20 AM EDT 9:33 PM EDT
Nautical Twilight 4:37 AM EDT 10:16 PM EDT
Astronomical Twilight 3:46 AM EDT 11:07 PM EDT
Moon 5:17 PM EDT (6/9) 3:22 AM EDT (6/9)
Length of Visible Light 16h 13m
Length of Day
15h 06m
Waxing Gibbous, 85% of the Moon is Illuminated
Jun 9
Waxing Gibbous
Jun 13
Full
Jun 19
Last Quarter
Jun 27
New
Jul 5
First Quarter

Hourly Weather History & Observations

Time (EDT) Temp. Dew Point Humidity Pressure Visibility Wind Dir Wind Speed Gust Speed Precip Events Conditions
12:38 AM 57.0 °F 55.0 °F 93% 29.99 in 6.0 mi SW 5.8 mph - N/A   Scattered Clouds
12:48 AM 57.2 °F 55.4 °F 94% 29.99 in 5.0 mi SW 4.6 mph - N/A   Mostly Cloudy
12:51 AM 57.0 °F 55.0 °F 93% 29.99 in 5.0 mi WSW 4.6 mph - N/A   Mostly Cloudy
1:17 AM 55.9 °F 55.0 °F 97% 29.99 in 5.0 mi SW 3.5 mph - N/A   Scattered Clouds
1:51 AM 55.0 °F 54.0 °F 96% 29.99 in 4.0 mi SW 3.5 mph - N/A   Scattered Clouds
2:51 AM 55.0 °F 54.0 °F 96% 30.00 in 5.0 mi SW 4.6 mph - N/A   Mostly Cloudy
3:51 AM 54.0 °F 53.1 °F 97% 30.00 in 4.0 mi Calm Calm - N/A   Mostly Cloudy
4:51 AM 55.0 °F 53.1 °F 93% 30.00 in 4.0 mi Calm Calm - N/A   Mostly Cloudy
5:51 AM 55.0 °F 53.1 °F 93% 29.98 in 5.0 mi Calm Calm - N/A   Mostly Cloudy
6:51 AM 55.0 °F 53.1 °F 93% 30.00 in 5.0 mi Calm Calm - N/A   Mostly Cloudy
7:51 AM 61.0 °F 57.0 °F 87% 30.00 in 6.0 mi NW 4.6 mph - N/A   Mostly Cloudy
8:51 AM 64.0 °F 57.9 °F 80% 30.00 in 10.0 mi NNE 6.9 mph - N/A   Mostly Cloudy
9:51 AM 66.0 °F 57.9 °F 75% 30.02 in 10.0 mi North 6.9 mph - N/A   Mostly Cloudy
10:51 AM 66.9 °F 57.0 °F 70% 30.01 in 10.0 mi North 9.2 mph - N/A   Mostly Cloudy
11:51 AM 66.0 °F 57.0 °F 73% 30.00 in 10.0 mi North 8.1 mph - N/A   Overcast
12:51 PM 68.0 °F 57.9 °F 70% 30.02 in 10.0 mi North 6.9 mph - N/A   Mostly Cloudy
1:51 PM 66.9 °F 57.9 °F 73% 30.01 in 10.0 mi NNE 8.1 mph - N/A   Mostly Cloudy
4:51 PM 66.9 °F 57.0 °F 70% 29.95 in 10.0 mi NNE 9.2 mph - N/A   Mostly Cloudy
5:51 PM 69.1 °F 55.9 °F 63% 29.96 in 10.0 mi NNE 10.4 mph - N/A   Scattered Clouds
6:51 PM 70.0 °F 57.0 °F 63% 29.95 in 10.0 mi NNW 8.1 mph - N/A   Scattered Clouds
7:51 PM 66.9 °F 57.0 °F 70% 29.96 in 10.0 mi North 8.1 mph - N/A   Scattered Clouds
8:51 PM 64.0 °F 57.9 °F 80% 29.96 in 10.0 mi NNE 4.6 mph - N/A   Mostly Cloudy
9:51 PM 63.0 °F 57.9 °F 84% 29.95 in 9.0 mi North 5.8 mph - N/A   Mostly Cloudy
10:51 PM 62.1 °F 57.9 °F 86% 29.96 in 7.0 mi NNE 4.6 mph - N/A   Mostly Cloudy
11:51 PM 61.0 °F 59.0 °F 93% 29.97 in 6.0 mi NNE 5.8 mph - N/A   Scattered Clouds